STARLINK-4426 (53484 NORAD) Tracking and Keplerian Element Data

This shows tracking and keplerian element data for the satellite.

Feedback or suggestion? Click here.




ElementValue
Catalog53484
NameSTARLINK-4426
Epoch Orbit1521
Epoch Day324.82681512
Epoch Year2022
RAAN83.8859
Inclination97.6601
Eccentricity0.0001539
Argument of Perigee16.4639
Mean Anonmoly343.6635
Mean Motion15.01262295
Decay Rate2.555E-05
L11 53484U 22099V 22324.82681512 .00002555 00000+0 20341-3 0 9991
L22 53484 97.6601 83.8859 0001539 16.4639 343.6635 15.01262295 15215



Live tracking and technical data element details for STARLINK-4426 (NORAD 53484). STARLINK-4426 can be tracked NOW for your location showing map with azimuth and elevation plus other details from your city location.







IsCatalogInMostPopularTable: catalog: 53484, numindb: 4
Update: records affected: 1



GetName: 53484 STARLINK-4426

Hit Count: updated at: Thu, 08 Dec 2022 18:57:17 GMT